QPF
0.05 0.06 0.05 0.04 0.04 0.04 0.04 0.05 0.05 0.04 0.03 0.03 0.03 0.02 0.02 0.03 0.03 0.03 0.03 0.04 0.03 0.02 0.01 0.01 0.01 0.01 0.01 0.01 0.01 0.01 0.02 0.02 0.02 0.01 0.02 0.02 0.02 0.03
0.06 0.07 0.08 0.08 0.06 0.05 0.04 0.05 0.05 0.06 0.05 0.03 0.03 0.03 0.02 0.02 0.02 0.02 0.02 0.02 0.02 0.02 0.01 0.01 0.01 0.01 0.01 0.01 0.01 0.01 0.01 0.01 0.01 0.01 0.02 0.02 0.02 0.02
0.05 0.05 0.06 0.06 0.07 0.07 0.06 0.05 0.05 0.06 0.06 0.05 0.04 0.04 0.03 0.03 0.02 0.01 0.02 0.02 0.02 0.02 0.01 0.01 0.01 0.01 0.01 0.02 0.02 0.02 0.02 0.02 0.02 0.02 0.02 0.02 0.03 0.02
0.03 0.03 0.04 0.04 0.05 0.06 0.06 0.05 0.05 0.05 0.05 0.06 0.05 0.05 0.03 0.02 0.02 0.01 0.01 0.01 0.01 0.02 0.02 0.02 0.01 0.01 0.01 0.01 0.02 0.03 0.03 0.02 0.02 0.02 0.02 0.02 0.02 0.03
0.02 0.02 0.02 0.03 0.03 0.04 0.05 0.04 0.04 0.03 0.04 0.04 0.03 0.03 0.02 0.01 0.02 0.02 0.02 0.02 0.03 0.04 0.03 0.02 0.01 0.01 0.01 0.01 0.01 0.02 0.03 0.02 0.02 0.02 0.02 0.02 0.01 0.01
0.01 0.01 0.02 0.02 0.02 0.02 0.03 0.02 0.02 0.02 0.03 0.03 0.03 0.02 0.02 0.02 0.01 0.01 0.02 0.03 0.05 0.04 0.02 0.02 0.02 0.01 0.01 0.01 0.01 0.02 0.04 0.03 0.03 0.02 0.02 0.01 0.01 0.01
0.02 0.03 0.03 0.02 0.02 0.02 0.02 0.02 0.01 0.01 0.01 0.01 0.01 0.01 0.02 0.02 0.02 0.01 0.02 0.03 0.02 0.01 0.02 0.02 0.02 0.01 0.01 0.01 0.01 0.02 0.02 0.03 0.03 0.02 0.02 0.01 0.01 0.02
0.04 0.04 0.03 0.02 0.02 0.01 0.01 0.01 0.01 0.00 0.00 0.00 0.01 0.01 0.01 0.01 0.02 0.02 0.02 0.02 0.02 0.02 0.01 0.01 0.01 0.01 0.01 0.01 0.02 0.02 0.02 0.02 0.03 0.02 0.02 0.02 0.02 0.02
0.05 0.04 0.02 0.01 0.01 0.01 0.01 0.01 0.00 0.00 0.00 0.00 0.01 0.00 0.01 0.01 0.01 0.01 0.01 0.01 0.01 0.01 0.01 0.01 0.01 0.02 0.02 0.02 0.02 0.01 0.01 0.02 0.02 0.02 0.02 0.02 0.02 0.03
0.03 0.03 0.02 0.01 0.01 0.01 0.01 0.00 0.00 0.00 0.00 0.00 0.00 0.00 0.00 0.01 0.01 0.01 0.01 0.01 0.01 0.00 0.01 0.01 0.01 0.01 0.01 0.01 0.01 0.02 0.01 0.01 0.01 0.01 0.02 0.03 0.03 0.03
0.03 0.03 0.03 0.03 0.03 0.02 0.01 0.01 0.00 0.00 0.00 0.00 0.00 0.00 0.01 0.01 0.01 0.01 0.01 0.01 0.01 0.01 0.01 0.02 0.01 0.01 0.01 0.01 0.01 0.01 0.01 0.01 0.01 0.01 0.02 0.02 0.03 0.03
0.03 0.04 0.04 0.03 0.03 0.03 0.02 0.01 0.01 0.01 0.01 0.00 0.01 0.01 0.01 0.01 0.01 0.01 0.01 0.01 0.01 0.01 0.02 0.03 0.02 0.02 0.01 0.01 0.01 0.02 0.02 0.02 0.01 0.01 0.01 0.01 0.02 0.03
0.04 0.03 0.03 0.03 0.03 0.03 0.02 0.01 0.01 0.01 0.01 0.01 0.01 0.01 0.01 0.01 0.01 0.02 0.01 0.01 0.01 0.01 0.02 0.03 0.03 0.03 0.01 0.01 0.01 0.02 0.03 0.03 0.02 0.01 0.01 0.01 0.01 0.03
0.05 0.04 0.03 0.03 0.03 0.02 0.01 0.01 0.01 0.01 0.01 0.01 0.01 0.00 0.00 0.00 0.00 0.01 0.01 0.01 0.01 0.02 0.02 0.03 0.03 0.02 0.01 0.01 0.01 0.02 0.03 0.03 0.02 0.01 0.01 0.01 0.01 0.03
0.05 0.05 0.03 0.03 0.02 0.02 0.01 0.01 0.01 0.01 0.01 0.00 0.00 0.00 0.01 0.01 0.01 0.01 0.01 0.01 0.01 0.02 0.02 0.02 0.02 0.01 0.01 0.01 0.01 0.01 0.02 0.03 0.03 0.02 0.01 0.01 0.01 0.02
0.03 0.03 0.02 0.02 0.01 0.01 0.01 0.00 0.00 0.00 0.00 0.00 0.01 0.01 0.01 0.01 0.01 0.01 0.01 0.01 0.01 0.02 0.02 0.02 0.01 0.01 0.01 0.01 0.01 0.01 0.02 0.03 0.04 0.03 0.02 0.01 0.01 0.01
0.02 0.01 0.01 0.01 0.01 0.01 0.00 0.00 0.00 0.00 0.00 0.00 0.01 0.01 0.01 0.01 0.01 0.01 0.01 0.01 0.01 0.01 0.01 0.01 0.01 0.01 0.01 0.01 0.01 0.01 0.02 0.03 0.04 0.05 0.04 0.03 0.03 0.03
0.02 0.01 0.01 0.01 0.01 0.01 0.01 0.00 0.00 0.01 0.02 0.02 0.01 0.01 0.01 0.01 0.01 0.01 0.02 0.02 0.01 0.01 0.01 0.01 0.01 0.01 0.00 0.00 0.01 0.01 0.01 0.01 0.03 0.05 0.05 0.04 0.05 0.05
0.02 0.02 0.02 0.02 0.02 0.02 0.01 0.01 0.01 0.01 0.03 0.05 0.05 0.04 0.04 0.03 0.03 0.02 0.02 0.02 0.02 0.01 0.01 0.01 0.00 0.00 0.01 0.01 0.01 0.01 0.01 0.01 0.02 0.05 0.06 0.05 0.06 0.06
0.01 0.01 0.02 0.02 0.02 0.03 0.02 0.01 0.01 0.03 0.04 0.06 0.10 0.10 0.07 0.05 0.04 0.03 0.02 0.01 0.01 0.01 0.01 0.01 0.00 0.00 0.01 0.01 0.01 0.01 0.02 0.02 0.02 0.03 0.05 0.04 0.04 0.04
0.01 0.02 0.03 0.04 0.04 0.03 0.03 0.02 0.02 0.03 0.04 0.05 0.07 0.08 0.08 0.06 0.04 0.02 0.02 0.01 0.01 0.01 0.01 0.01 0.01 0.00 0.00 0.00 0.00 0.01 0.01 0.01 0.02 0.03 0.04 0.03 0.03 0.04
0.01 0.02 0.03 0.03 0.02 0.01 0.01 0.01 0.02 0.03 0.04 0.04 0.04 0.05 0.06 0.05 0.04 0.02 0.02 0.02 0.01 0.01 0.01 0.01 0.01 0.01 0.01 0.01 0.01 0.00 0.00 0.01 0.01 0.02 0.03 0.04 0.03 0.03
0.01 0.01 0.01 0.01 0.01 0.02 0.02 0.02 0.03 0.03 0.03 0.03 0.03 0.03 0.05 0.05 0.04 0.03 0.03 0.02 0.02 0.02 0.02 0.02 0.02 0.01 0.01 0.01 0.01 0.00 0.01 0.01 0.01 0.01 0.02 0.03 0.03 0.03
MSLP
1012.52 1012.54 1012.55 1012.51 1012.38 1012.13 1011.76 1011.27 1010.67 1010.02 1009.33 1008.64 1007.98 1007.34 1006.74 1006.17 1005.62 1005.09 1004.58 1004.10 1003.67 1003.30 1003.01 1002.80 1002.67 1002.60 1002.58 1002.58 1002.59 1002.59 1002.59 1002.58 1002.58 1002.59 1002.63 1002.69 1002.78 1002.90
1012.37 1012.36 1012.33 1012.27 1012.11 1011.85 1011.48 1010.99 1010.40 1009.76 1009.08 1008.39 1007.72 1007.07 1006.44 1005.84 1005.25 1004.69 1004.16 1003.66 1003.23 1002.86 1002.57 1002.36 1002.22 1002.14 1002.08 1002.04 1002.00 1001.95 1001.88 1001.82 1001.76 1001.72 1001.71 1001.73 1001.78 1001.85
1012.25 1012.20 1012.14 1012.04 1011.87 1011.60 1011.23 1010.75 1010.19 1009.57 1008.91 1008.23 1007.55 1006.88 1006.22 1005.58 1004.95 1004.36 1003.80 1003.29 1002.85 1002.48 1002.20 1001.99 1001.84 1001.73 1001.64 1001.55 1001.45 1001.33 1001.20 1001.06 1000.93 1000.82 1000.75 1000.71 1000.71 1000.73
1012.17 1012.08 1011.99 1011.86 1011.67 1011.40 1011.04 1010.59 1010.07 1009.47 1008.84 1008.17 1007.49 1006.80 1006.11 1005.43 1004.78 1004.15 1003.57 1003.05 1002.60 1002.23 1001.95 1001.73 1001.57 1001.43 1001.30 1001.15 1000.98 1000.78 1000.56 1000.34 1000.13 999.95 999.80 999.70 999.63 999.59
1012.14 1012.01 1011.88 1011.72 1011.52 1011.25 1010.91 1010.49 1009.99 1009.44 1008.83 1008.18 1007.51 1006.81 1006.11 1005.41 1004.73 1004.09 1003.49 1002.97 1002.52 1002.16 1001.87 1001.64 1001.45 1001.27 1001.08 1000.87 1000.61 1000.33 1000.02 999.71 999.42 999.15 998.94 998.76 998.64 998.55
1012.11 1011.94 1011.77 1011.59 1011.38 1011.10 1010.77 1010.38 1009.92 1009.40 1008.82 1008.20 1007.55 1006.86 1006.17 1005.47 1004.79 1004.15 1003.56 1003.05 1002.61 1002.25 1001.96 1001.71 1001.49 1001.26 1001.01 1000.72 1000.39 1000.02 999.62 999.23 998.86 998.52 998.24 998.01 997.83 997.70
1012.04 1011.83 1011.63 1011.41 1011.18 1010.90 1010.58 1010.20 1009.77 1009.28 1008.74 1008.16 1007.53 1006.88 1006.21 1005.54 1004.89 1004.28 1003.72 1003.23 1002.81 1002.46 1002.17 1001.91 1001.65 1001.38 1001.07 1000.70 1000.29 999.85 999.38 998.92 998.49 998.11 997.78 997.51 997.30 997.14
1011.90 1011.65 1011.41 1011.16 1010.90 1010.60 1010.28 1009.91 1009.49 1009.03 1008.53 1007.99 1007.40 1006.79 1006.17 1005.55 1004.95 1004.39 1003.88 1003.43 1003.04 1002.71 1002.42 1002.14 1001.86 1001.54 1001.18 1000.76 1000.29 999.79 999.28 998.78 998.33 997.92 997.58 997.31 997.09 996.93
1011.69 1011.41 1011.13 1010.83 1010.54 1010.22 1009.87 1009.50 1009.09 1008.65 1008.18 1007.67 1007.13 1006.58 1006.01 1005.45 1004.92 1004.42 1003.96 1003.56 1003.21 1002.90 1002.61 1002.32 1002.01 1001.66 1001.26 1000.80 1000.30 999.78 999.26 998.77 998.32 997.93 997.61 997.36 997.17 997.03
1011.44 1011.13 1010.80 1010.47 1010.13 1009.78 1009.41 1009.02 1008.61 1008.18 1007.73 1007.25 1006.76 1006.25 1005.74 1005.24 1004.77 1004.33 1003.92 1003.57 1003.25 1002.95 1002.66 1002.36 1002.03 1001.66 1001.24 1000.77 1000.27 999.76 999.26 998.80 998.40 998.07 997.80 997.60 997.46 997.37
1011.21 1010.86 1010.50 1010.14 1009.76 1009.37 1008.98 1008.57 1008.15 1007.72 1007.27 1006.81 1006.35 1005.88 1005.42 1004.97 1004.54 1004.15 1003.78 1003.45 1003.14 1002.85 1002.55 1002.24 1001.89 1001.50 1001.08 1000.62 1000.14 999.66 999.22 998.82 998.49 998.23 998.04 997.92 997.84 997.82
1011.03 1010.66 1010.28 1009.89 1009.48 1009.07 1008.64 1008.22 1007.78 1007.35 1006.91 1006.46 1006.02 1005.57 1005.14 1004.72 1004.32 1003.94 1003.59 1003.26 1002.95 1002.64 1002.33 1001.99 1001.63 1001.23 1000.81 1000.37 999.92 999.50 999.11 998.79 998.53 998.35 998.24 998.19 998.19 998.23
1010.93 1010.56 1010.17 1009.76 1009.34 1008.91 1008.47 1008.03 1007.59 1007.15 1006.72 1006.28 1005.84 1005.42 1004.99 1004.58 1004.19 1003.81 1003.45 1003.11 1002.77 1002.43 1002.09 1001.72 1001.34 1000.94 1000.51 1000.09 999.68 999.30 998.98 998.72 998.53 998.41 998.36 998.37 998.42 998.51
1010.89 1010.53 1010.15 1009.75 1009.33 1008.90 1008.47 1008.03 1007.60 1007.17 1006.74 1006.31 1005.89 1005.47 1005.05 1004.64 1004.24 1003.85 1003.47 1003.09 1002.72 1002.34 1001.96 1001.57 1001.16 1000.74 1000.32 999.90 999.52 999.17 998.88 998.65 998.50 998.42 998.40 998.43 998.50 998.61
1010.88 1010.54 1010.18 1009.80 1009.41 1009.00 1008.60 1008.18 1007.78 1007.37 1006.97 1006.56 1006.16 1005.75 1005.34 1004.93 1004.52 1004.11 1003.71 1003.30 1002.89 1002.48 1002.06 1001.63 1001.20 1000.77 1000.34 999.92 999.54 999.20 998.91 998.69 998.53 998.43 998.39 998.41 998.46 998.54
1010.83 1010.53 1010.20 1009.86 1009.51 1009.15 1008.79 1008.42 1008.06 1007.70 1007.34 1006.97 1006.60 1006.22 1005.83 1005.44 1005.03 1004.61 1004.19 1003.77 1003.33 1002.89 1002.45 1002.00 1001.55 1001.10 1000.66 1000.23 999.83 999.47 999.15 998.89 998.68 998.53 998.43 998.38 998.36 998.38
1010.70 1010.44 1010.16 1009.87 1009.58 1009.27 1008.97 1008.67 1008.37 1008.08 1007.78 1007.47 1007.15 1006.82 1006.47 1006.10 1005.71 1005.31 1004.89 1004.47 1004.03 1003.58 1003.13 1002.67 1002.21 1001.74 1001.28 1000.84 1000.41 1000.00 999.63 999.30 999.01 998.77 998.57 998.41 998.30 998.22
1010.47 1010.26 1010.04 1009.81 1009.58 1009.34 1009.11 1008.89 1008.66 1008.44 1008.21 1007.97 1007.72 1007.44 1007.15 1006.82 1006.48 1006.11 1005.72 1005.31 1004.89 1004.46 1004.02 1003.56 1003.10 1002.63 1002.16 1001.69 1001.22 1000.76 1000.33 999.91 999.53 999.17 998.85 998.57 998.33 998.13
1010.17 1010.01 1009.85 1009.68 1009.52 1009.36 1009.20 1009.05 1008.91 1008.76 1008.60 1008.43 1008.24 1008.03 1007.79 1007.52 1007.23 1006.90 1006.55 1006.18 1005.79 1005.39 1004.97 1004.54 1004.09 1003.62 1003.14 1002.65 1002.15 1001.64 1001.14 1000.64 1000.16 999.70 999.26 998.86 998.49 998.17
1009.85 1009.75 1009.65 1009.55 1009.45 1009.36 1009.28 1009.20 1009.11 1009.03 1008.94 1008.83 1008.70 1008.54 1008.35 1008.13 1007.88 1007.60 1007.29 1006.96 1006.61 1006.24 1005.85 1005.44 1005.01 1004.56 1004.08 1003.57 1003.04 1002.50 1001.94 1001.38 1000.82 1000.27 999.74 999.23 998.76 998.32
1009.57 1009.53 1009.49 1009.46 1009.43 1009.41 1009.38 1009.36 1009.33 1009.29 1009.24 1009.17 1009.07 1008.94 1008.79 1008.60 1008.38 1008.13 1007.85 1007.56 1007.24 1006.91 1006.55 1006.17 1005.76 1005.31 1004.84 1004.33 1003.78 1003.21 1002.62 1002.01 1001.40 1000.79 1000.20 999.63 999.08 998.56
1009.38 1009.41 1009.43 1009.46 1009.49 1009.52 1009.55 1009.56 1009.57 1009.56 1009.53 1009.47 1009.38 1009.26 1009.11 1008.93 1008.71 1008.48 1008.22 1007.95 1007.65 1007.34 1007.00 1006.64 1006.25 1005.82 1005.35 1004.84 1004.29 1003.70 1003.09 1002.47 1001.83 1001.20 1000.57 999.97 999.39 998.83
1009.29 1009.38 1009.47 1009.56 1009.65 1009.73 1009.79 1009.84 1009.86 1009.86 1009.82 1009.75 1009.65 1009.51 1009.34 1009.14 1008.91 1008.67 1008.41 1008.14 1007.85 1007.55 1007.23 1006.88 1006.50 1006.08 1005.61 1005.10 1004.55 1003.96 1003.35 1002.71 1002.07 1001.44 1000.81 1000.20 999.62 999.05
Thickness
5658 5656 5654 5653 5652 5649 5646 5642 5636 5631 5631 5634 5634 5636 5635 5634 5633 5631 5630 5630 5629 5627 5626 5625 5624 5624 5624 5624 5624 5624 5624 5625 5625 5625 5626 5626 5627 5628
5654 5651 5649 5648 5646 5644 5642 5638 5634 5629 5625 5627 5627 5627 5626 5626 5625 5623 5622 5621 5620 5619 5618 5617 5616 5615 5615 5615 5616 5616 5616 5617 5618 5619 5619 5620 5621 5622
5648 5646 5644 5642 5640 5638 5636 5633 5629 5625 5620 5620 5620 5620 5618 5616 5615 5614 5613 5612 5612 5611 5610 5609 5608 5607 5607 5607 5607 5608 5609 5609 5610 5611 5612 5613 5615 5616
5643 5641 5639 5637 5634 5632 5629 5627 5624 5620 5616 5612 5612 5611 5611 5609 5608 5606 5605 5605 5604 5603 5602 5601 5600 5599 5599 5599 5599 5600 5601 5602 5603 5604 5605 5606 5607 5608
5640 5637 5634 5632 5629 5627 5624 5621 5618 5616 5612 5607 5604 5604 5603 5602 5600 5599 5598 5596 5596 5596 5595 5594 5592 5592 5591 5591 5592 5592 5593 5594 5595 5596 5597 5598 5600 5601
5637 5634 5631 5629 5626 5624 5621 5617 5614 5610 5606 5601 5598 5596 5595 5594 5592 5589 5588 5588 5587 5588 5586 5585 5585 5584 5584 5584 5584 5585 5585 5586 5587 5588 5589 5590 5592 5593
5633 5630 5629 5627 5625 5622 5619 5614 5610 5605 5600 5596 5592 5590 5588 5586 5584 5582 5580 5579 5579 5579 5577 5577 5576 5576 5576 5576 5577 5577 5577 5578 5578 5579 5580 5581 5583 5584
5628 5627 5626 5624 5622 5619 5616 5613 5609 5603 5597 5592 5588 5585 5583 5581 5579 5577 5573 5570 5569 5571 5568 5568 5568 5567 5568 5569 5569 5570 5570 5570 5571 5571 5572 5573 5574 5575
5625 5623 5622 5621 5617 5614 5611 5609 5605 5601 5597 5591 5585 5582 5580 5579 5575 5571 5568 5564 5562 5564 5561 5560 5560 5559 5561 5562 5562 5562 5562 5563 5563 5563 5564 5565 5566 5567
5622 5620 5617 5615 5613 5609 5606 5602 5599 5596 5593 5589 5585 5582 5579 5577 5572 5568 5564 5561 5559 5558 5555 5552 5553 5553 5555 5554 5554 5554 5555 5555 5555 5555 5556 5556 5557 5558
5619 5617 5614 5611 5609 5605 5600 5596 5593 5591 5589 5586 5583 5580 5577 5574 5570 5564 5559 5555 5552 5552 5551 5547 5547 5546 5546 5547 5548 5548 5547 5547 5547 5548 5548 5548 5549 5549
5615 5613 5611 5607 5604 5601 5596 5591 5587 5585 5582 5580 5578 5576 5573 5570 5567 5562 5557 5552 5548 5546 5547 5544 5542 5539 5538 5540 5540 5540 5540 5539 5539 5540 5540 5540 5540 5540
5612 5609 5607 5604 5601 5598 5594 5589 5585 5582 5578 5574 5572 5570 5568 5565 5562 5559 5555 5550 5546 5543 5544 5540 5537 5534 5531 5530 5531 5532 5531 5530 5531 5531 5532 5533 5533 5533
5608 5605 5603 5601 5598 5594 5591 5587 5583 5579 5574 5570 5567 5564 5562 5560 5558 5556 5553 5550 5547 5544 5542 5538 5534 5530 5526 5523 5523 5524 5523 5522 5521 5522 5523 5525 5526 5526
5605 5603 5600 5597 5594 5591 5588 5584 5580 5574 5570 5566 5563 5561 5560 5558 5555 5553 5551 5548 5545 5542 5539 5536 5532 5528 5523 5519 5517 5516 5515 5515 5514 5514 5515 5516 5517 5519
5602 5600 5597 5594 5591 5587 5584 5580 5576 5572 5568 5564 5561 5560 5557 5555 5552 5549 5546 5543 5539 5537 5536 5533 5529 5524 5519 5516 5513 5510 5509 5507 5508 5507 5508 5510 5511 5512
5598 5595 5592 5589 5585 5582 5578 5575 5572 5569 5565 5562 5560 5557 5555 5552 5549 5547 5543 5539 5534 5531 5528 5527 5524 5521 5517 5512 5509 5507 5505 5503 5503 5503 5503 5504 5506 5507
5595 5591 5588 5585 5581 5578 5575 5572 5569 5566 5563 5561 5558 5555 5552 5549 5546 5543 5539 5535 5530 5527 5524 5521 5519 5516 5512 5510 5507 5503 5501 5499 5499 5499 5499 5499 5500 5501
5591 5587 5584 5582 5579 5576 5573 5570 5567 5565 5562 5559 5556 5553 5550 5547 5544 5540 5536 5531 5527 5524 5521 5518 5515 5511 5507 5504 5504 5502 5498 5496 5496 5495 5495 5494 5494 5496
5587 5585 5582 5580 5577 5574 5572 5568 5566 5563 5560 5557 5553 5550 5547 5544 5541 5537 5533 5529 5525 5521 5518 5516 5512 5509 5505 5501 5500 5499 5498 5494 5493 5492 5492 5491 5491 5493
5586 5583 5581 5579 5576 5573 5570 5567 5564 5561 5558 5554 5551 5547 5544 5541 5538 5535 5531 5527 5523 5519 5516 5513 5512 5510 5505 5501 5497 5496 5496 5495 5492 5490 5489 5487 5487 5487
5585 5582 5580 5577 5574 5571 5569 5566 5562 5558 5555 5551 5548 5545 5542 5538 5535 5533 5529 5525 5521 5517 5515 5512 5511 5508 5504 5500 5496 5494 5492 5493 5492 5490 5489 5486 5483 5482
5584 5581 5578 5575 5572 5569 5567 5563 5560 5556 5552 5548 5545 5542 5539 5536 5533 5530 5527 5524 5520 5517 5514 5511 5509 5506 5502 5498 5495 5492 5491 5490 5488 5487 5486 5486 5484 5483